Mankato, MN

3:13 PM CDT on October 20, 2019 (GMT -0500)
Mankato Regional

Weather History for KMKT - May, 2019

Change the Weather History Date:

Wednesday, May 8, 2019

  Actual Average Record
Temperature  
Mean Temperature 47 °F -  
Max Temperature 55 °F 63 °F 79 °F (2017)
Min Temperature 37 °F 44 °F 37 °F (2019)
Degree Days  
Heating Degree Days 18    
Moisture  
Dew Point 40 °F    
Average Humidity 88    
Maximum Humidity 100    
Minimum Humidity 55    
Precipitation  
Precipitation 1.26 in - - ()
Sea Level Pressure  
Sea Level Pressure 29.84 in    
Wind  
Wind Speed 18 mph (ENE)    
Max Wind Speed 26 mph    
Max Gust Speed 37 mph    
Visibility 5 miles    
Events Rain    
Averages and records for this station are not official NWS values.
T = Trace of Precipitation, MM = Missing Value Source: NWS Daily Summary

Daily Weather History Graph

Daily Weather History Graph

Search for Another Location

Airport or City:

Astronomy

May. 08, 2019 Rise Set
Actual Time 5:57 AM CDT 8:27 PM CDT
Civil Twilight 5:24 AM CDT 9:00 PM CDT
Nautical Twilight 4:44 AM CDT 9:41 PM CDT
Astronomical Twilight 3:58 AM CDT 10:27 PM CDT
Moon 8:51 AM CDT (5/8) No Moon Set
Length of Visible Light 15h 35m
Length of Day
14h 30m
Waxing Crescent, 16% of the Moon is Illuminated
May 8
Waxing Crescent
May 11
First Quarter
May 18
Full
May 26
Last Quarter
Jun 3
New

Hourly Weather History & Observations

Time (CDT) Temp. Windchill Dew Point Humidity Pressure Visibility Wind Dir Wind Speed Gust Speed Precip Events Conditions
12:56 AM 55.0 °F - 39.0 °F 55% 30.13 in 10.0 mi ESE 15.0 mph - N/A   Overcast
1:56 AM 54.0 °F - 39.0 °F 57% 30.11 in 10.0 mi ESE 16.1 mph - N/A   Overcast
2:56 AM 53.1 °F - 39.0 °F 59% 30.11 in 10.0 mi ESE 13.8 mph - N/A   Overcast
3:56 AM 52.0 °F - 39.9 °F 63% 30.09 in 10.0 mi ESE 16.1 mph 23.0 mph N/A   Overcast
4:56 AM 51.1 °F - 39.0 °F 63% 30.08 in 10.0 mi East 18.4 mph 24.2 mph N/A   Overcast
5:56 AM 50.0 °F - 37.9 °F 63% 30.06 in 10.0 mi East 17.3 mph - N/A   Overcast
6:56 AM 48.0 °F - 37.9 °F 68% 30.05 in 10.0 mi East 16.1 mph 23.0 mph 0.00 in Rain Light Rain
7:56 AM 46.0 °F 39.6 °F 37.0 °F 71% 30.04 in 9.0 mi East 15.0 mph - 0.00 in Rain Rain
8:56 AM 43.0 °F 35.4 °F 37.9 °F 82% 30.02 in 8.0 mi East 16.1 mph 24.2 mph 0.06 in Rain Light Rain
9:56 AM 42.1 °F 33.9 °F 37.9 °F 85% 29.98 in 6.0 mi ENE 17.3 mph 25.3 mph 0.07 in Rain Rain
10:56 AM 41.0 °F 31.6 °F 39.0 °F 93% 29.92 in 5.0 mi ENE 20.7 mph 27.6 mph 0.05 in Rain Light Rain
11:56 AM 41.0 °F 31.9 °F 39.9 °F 96% 29.88 in 5.0 mi ENE 19.6 mph 27.6 mph 0.10 in Rain Rain
12:56 PM 42.1 °F 33.6 °F 39.9 °F 92% 29.84 in 3.0 mi ENE 18.4 mph 26.5 mph 0.13 in Rain Light Rain
1:56 PM 42.1 °F 32.8 °F 41.0 °F 96% 29.78 in 2.5 mi ENE 21.9 mph 31.1 mph 0.23 in Rain Heavy Rain
2:06 PM 42.8 °F 33.8 °F 41.0 °F 93% 29.76 in 1.8 mi ENE 21.9 mph 26.5 mph 0.06 in Rain Light Rain
2:39 PM 42.8 °F 33.8 °F 41.0 °F 93% 29.77 in 2.0 mi ENE 21.9 mph 28.8 mph 0.23 in Rain Light Rain
2:46 PM 42.8 °F 35.1 °F 41.0 °F 93% 29.77 in 2.5 mi ENE 16.1 mph 27.6 mph 0.24 in Rain Light Rain
2:51 PM 42.8 °F 35.1 °F 42.8 °F 100% 29.77 in 3.0 mi ENE 16.1 mph - 0.26 in Rain Light Rain
2:56 PM 43.0 °F 34.2 °F 41.0 °F 93% 29.79 in 3.0 mi ENE 20.7 mph - 0.26 in Rain Light Rain
3:16 PM 42.8 °F 34.8 °F 42.8 °F 100% 29.76 in 4.0 mi NE 17.3 mph 24.2 mph 0.02 in Rain Light Rain
3:38 PM 42.8 °F 34.8 °F 41.0 °F 93% 29.75 in 2.0 mi NE 17.3 mph - 0.04 in Rain Rain
3:52 PM 42.8 °F 35.1 °F 42.8 °F 100% 29.75 in 4.0 mi NE 16.1 mph - 0.04 in Rain Light Rain
3:56 PM 43.0 °F 35.1 °F 42.1 °F 97% 29.76 in 4.0 mi NE 17.3 mph 25.3 mph 0.05 in Rain Rain
4:11 PM 42.8 °F 35.1 °F 42.8 °F 100% 29.74 in 2.5 mi NE 16.1 mph 27.6 mph 0.03 in Rain Rain
4:26 PM 42.8 °F 33.5 °F 42.8 °F 100% 29.73 in 3.0 mi NE 23.0 mph 28.8 mph 0.05 in Rain Rain
4:56 PM 43.0 °F 33.3 °F 41.0 °F 93% 29.74 in 3.0 mi NE 25.3 mph 28.8 mph 0.10 in Rain Light Rain
5:05 PM 42.8 °F 34.0 °F 41.0 °F 93% 29.73 in 2.0 mi NE 20.7 mph 29.9 mph 0.01 in Rain Rain
5:28 PM 42.8 °F 33.8 °F 41.0 °F 93% 29.73 in 3.0 mi NE 21.9 mph 26.5 mph 0.06 in Rain Rain
5:37 PM 42.8 °F 33.8 °F 41.0 °F 93% 29.73 in 2.0 mi NE 21.9 mph 28.8 mph 0.07 in Rain Rain
5:56 PM 42.1 °F 33.1 °F 41.0 °F 96% 29.75 in 2.5 mi NE 20.7 mph 28.8 mph 0.08 in Rain Rain
6:56 PM 42.1 °F 32.8 °F 41.0 °F 96% 29.74 in 3.0 mi NE 21.9 mph 32.2 mph 0.06 in Rain Rain
7:29 PM 42.8 °F 33.3 °F 39.2 °F 87% 29.71 in 2.5 mi NNE 24.2 mph 36.8 mph 0.03 in Rain Rain
7:39 PM 42.8 °F 33.3 °F 39.2 °F 87% 29.70 in 4.0 mi NNE 24.2 mph 32.2 mph 0.03 in Rain Light Rain
7:56 PM 42.1 °F 32.8 °F 39.9 °F 92% 29.74 in 4.0 mi NE 21.9 mph 31.1 mph 0.04 in Rain Light Rain
8:12 PM 41.0 °F 30.5 °F 39.2 °F 93% 29.70 in 2.5 mi NE 26.5 mph 31.1 mph 0.01 in Rain Rain
8:32 PM 41.0 °F 31.4 °F 39.2 °F 93% 29.70 in 3.0 mi NE 21.9 mph 33.4 mph 0.02 in Rain Light Rain
8:56 PM 41.0 °F 31.6 °F 39.9 °F 96% 29.74 in 7.0 mi NE 20.7 mph - 0.02 in Rain Light Rain
9:56 PM 39.9 °F 30.2 °F 39.0 °F 97% 29.76 in 3.0 mi NNE 20.7 mph 27.6 mph 0.00 in Rain Light Rain
10:56 PM 39.0 °F 29.6 °F 37.9 °F 96% 29.78 in 3.0 mi North 18.4 mph - 0.01 in Rain Light Rain
11:56 PM 37.9 °F 27.6 °F 37.0 °F 97% 29.78 in 3.0 mi North 20.7 mph 25.3 mph 0.00 in Rain Light Rain